Weather History for Cape Race, NL

Change the Weather History Date:

Friday, November 29, 2013

  Actual Average Record
Temperature  
Mean Temperature 38 °F -  
Max Temperature 43 °F - - ()
Min Temperature 31 °F - - ()
Degree Days  
Heating Degree Days 28    
Moisture  
Dew Point 33 °F    
Average Humidity 82    
Maximum Humidity 100    
Minimum Humidity 53    
Precipitation  
Precipitation 0.00 in - - ()
Sea Level Pressure  
Sea Level Pressure 30.20 in    
Wind  
Wind Speed 15 mph ()    
Max Wind Speed 24 mph    
Max Gust Speed 32 mph    
T = Trace of Precipitation, MM = Missing Value Source: Averaged Metar Reports

Daily Weather History Graph

Daily Weather History Graph

Search for Another Location

Airport:

Trip Planner

Search our weather history database for the weather conditions in past years. The results will help you decide how hot, cold, wet, or windy it might be!

Date:

Astronomy

Nov. 29, 2013 Rise Set
Actual Time 7:23 AM NST 4:17 PM NST
Civil Twilight 6:49 AM NST 4:51 PM NST
Nautical Twilight 6:11 AM NST 5:29 PM NST
Astronomical Twilight 5:35 AM NST 6:05 PM NST
Moon 3:10 AM NST (11/29) 2:09 PM NST (11/29)
Length of Visible Light 10h 01m
Length of Day
8h 53m
Waning Crescent, 15% of the Moon is Illuminated
Nov 29
Waning Crescent
Dec 2
New
Dec 9
First Quarter
Dec 17
Full
Dec 25
Last Quarter

Hourly Weather History & Observations

Time (NST) Temp. Windchill Dew Point Humidity Pressure Visibility Wind Dir Wind Speed Gust Speed Precip Events Conditions
12:30 AM 42.6 °F 33.5 °F 42.1 °F 98% 30.03 in - SW 21.9 mph 32.2 mph 0.02 in   Unknown
1:30 AM 40.8 °F 30.7 °F 38.3 °F 91% 30.03 in - WSW 24.2 mph 32.2 mph N/A   Unknown
2:30 AM 41 °F - 38 °F 85% 30.06 in - WSW 23.0 mph - -  
2:30 AM 41.2 °F 31.4 °F 37.9 °F 88% 30.06 in - WSW 23.0 mph 31.1 mph N/A   Unknown
3:30 AM 40.8 °F 30.9 °F 38.1 °F 90% 30.08 in - WSW 23.0 mph 28.8 mph N/A   Unknown
4:30 AM 38.1 °F 28.1 °F 35.4 °F 90% 30.11 in - West 19.6 mph 26.5 mph N/A   Unknown
5:30 AM 38 °F - 36 °F 88% 30.14 in - West 17.3 mph - -  
5:30 AM 38.5 °F 29.2 °F 35.8 °F 90% 30.14 in - West 17.3 mph 24.2 mph N/A   Unknown
6:30 AM 36.1 °F 26.9 °F 34.2 °F 93% 30.17 in - West 15.0 mph - N/A   Unknown
7:30 AM 34.7 °F 25.9 °F 31.6 °F 89% 30.20 in - West 12.7 mph - N/A   Unknown
8:30 AM 35 °F - 33 °F 88% 30.23 in - West 8.1 mph - -  
8:30 AM 34.5 °F 27.9 °F 31.3 °F 88% 30.23 in - West 8.1 mph - N/A   Unknown
9:30 AM 39.9 °F 31.8 °F 34.3 °F 80% 30.25 in - West 15.0 mph - N/A   Unknown
10:30 AM 41.0 °F 32.8 °F 33.8 °F 76% 30.26 in - West 16.1 mph - N/A   Unknown
11:30 AM 41 °F - 30 °F 54% 30.25 in - West 18.4 mph - -  
11:30 AM 40.6 °F 31.7 °F 30.0 °F 66% 30.25 in - West 18.4 mph - N/A   Unknown
12:30 PM 41.2 °F 33.4 °F 31.3 °F 68% 30.25 in - West 15.0 mph - N/A   Unknown
1:30 PM 42.6 °F 34.6 °F 30.6 °F 62% 30.24 in - West 17.3 mph - N/A   Unknown
2:30 PM 42 °F - 31 °F 53% 30.24 in - West 12.7 mph - -  
2:30 PM 41.5 °F 34.6 °F 30.7 °F 65% 30.24 in - West 12.7 mph - N/A   Unknown
3:30 PM 37.8 °F 31.3 °F 30.7 °F 76% 30.25 in - WSW 9.2 mph - N/A   Unknown
4:30 PM 35.1 °F 26.9 °F 29.3 °F 80% 30.25 in - WSW 11.5 mph - N/A   Unknown
5:30 PM 37 °F - 31 °F 71% 30.25 in - WSW 10.4 mph - -  
5:30 PM 36.7 °F 29.4 °F 30.9 °F 80% 30.25 in - WSW 10.4 mph - N/A   Unknown
6:30 PM 35.8 °F 28.3 °F 31.3 °F 84% 30.25 in - West 10.4 mph - N/A   Unknown
7:30 PM 33.8 °F 28.6 °F 30.4 °F 87% 30.25 in - WNW 5.8 mph - N/A   Unknown
8:30 PM 34 °F - 32 °F 87% 30.25 in - WNW 6.9 mph - -  
8:30 PM 34.3 °F 28.4 °F 31.6 °F 90% 30.25 in - WNW 6.9 mph - N/A   Unknown
9:30 PM 33.4 °F 28.1 °F 31.5 °F 92% 30.25 in - West 5.8 mph - N/A   Unknown
10:30 PM 34.7 °F 29.6 °F 33.3 °F 94% 30.24 in - WNW 5.8 mph - N/A   Unknown
11:30 PM 33 °F - 31 °F 92% 30.23 in - West 9.2 mph - -  
11:30 PM 31.5 °F 23.5 °F 31.5 °F 100% 30.23 in - West 9.2 mph - N/A   Unknown